Location: Harwich
(41.7160°N, 69.9939°W)
Time: 17:27:20
(UTC+01:00)

Courier 1B - Visible Passes

Search period start: 29 January 2023 00:00
Search period end: 08 February 2023 00:00
Orbit: 962 x 1209 km, 28.3° (Epoch: 28 January)

Date Brightness Start Highest point End Pass type
(mag) Time Alt. Az. Time Alt. Az. Time Alt. Az.
29 Jan 9.9 01:15:21 10° SW 01:18:26 13° SSW 01:21:35 10° S visible
30 Jan 9.8 00:21:03 10° SW 00:24:54 16° SSW 00:28:51 10° SSE visible
30 Jan 9.8 23:27:02 10° WSW 23:31:22 19° SSW 23:35:48 10° SSE visible
01 Feb 10.2 00:29:57 10° SSW 00:30:47 10° SSW 00:31:38 10° SSW visible
01 Feb 10.0 23:34:26 10° SW 23:37:18 13° SSW 23:40:11 10° S visible
